Back to catalog

FREGAT DEB

LostUNKNOWN
NORAD 45865·DEBRIS·🇷🇺 Russia

Launched Jul 18, 2011 from Baikonur Cosmodrome

Loading…

Next Passes (next 24 hours)

TLE

StaleSource: Space-Track

Epoch: Jun 16, 2021, 14:42 UTC

1 45865U 11037CP  21167.61308888  .02026380  00000-0  35746+0 0  9994
2 45865  51.0359 299.0925 1821719 197.7503 155.0571 11.46075747 39682

Track FREGAT DEB in real time with AllMySat

Download on the App Store